Weather observations for the past three days for
March Air Reserve Base
Imperial (Metric)
Date Time (pdt) Wind (mph) Vis. (mi.) Weather Sky Cond. Temperature (ºF) Relative Humidity Wind Chill (°F) Heat Index (°F) Pressure Precipitation (in)
Air Dwpt 6 hour altimeter (in) sea level (mb) 1 hr 3 hr 6 hr
Max. Min.
14 15:55 NW 14 10.00 A Few Clouds FEW120 FEW200 96.3 59.7 30% 96 30 1014.2
14 14:55 NW 10 10.00 Fair CLR 96.6 60.1 30% 97 30.01 1014.6
14 13:55 NW 9 10.00 Partly Cloudy FEW120 SCT200 95 59.5 31% 95 30.03 1015.3
14 12:55 NW 7 10.00 A Few Clouds FEW120 FEW200 94.1 59.7 32% 94 30.04 1015.6
14 11:55 NW 3 10.00 Fair CLR 91.9 60.3 35% 92 30.05 1016.0
14 10:55 Calm 10.00 Fair CLR 88.2 61.3 88.2 66 41% 88 30.07 1016.7
14 09:55 Calm 10.00 Fair CLR 84.4 63.1 49% 85 30.07 1016.8
14 08:55 Calm 10.00 Fair CLR 80.6 61.9 53% 82 30.08 1017.1
14 07:55 Calm 10.00 Fair CLR 76.3 62.2 62% 78 30.09 1017.5
14 06:55 Calm 10.00 Fair CLR 72.7 61.9 69% 30.06 1016.4
14 05:55 Calm 10.00 Fair CLR 68 61.2 79% 30.04 1015.8
14 04:55 Calm 10.00 Fair CLR 68.2 60.3 72.3 67.5 76% 30.03 1015.3
14 03:55 Calm 10.00 Fair CLR 69.4 61.2 75% 30.02 1014.9
14 02:55 Calm 10.00 Fair CLR 68.5 60.3 75% 30.02 1014.9
14 01:55 Calm 10.00 Fair CLR 69.8 61.2 74% 30.02 1014.9
14 00:55 Calm 10.00 Fair CLR 69.3 61.3 76% 30.03 1015.3
13 23:55 Calm 10.00 Fair CLR 70.7 61.5 73% 30.02 1015.0
13 22:55 NW 3 10.00 Fair CLR 72.3 61.5 95.7 71.8 69% 30.02 1014.9
13 21:55 NW 5 10.00 Fair CLR 74.7 61.2 63% 30.01 1014.7
13 20:55 Calm 10.00 Fair CLR 77.4 61 57% 79 29.99 1014.1
13 19:55 W 7 10.00 Fair CLR 82.2 59.9 47% 83 29.98 1013.7
13 18:55 NW 7 10.00 Fair CLR 88 56.8 35% 87 29.96 1013.0
13 17:55 NW 5 10.00 Fair CLR 91 56.1 31% 89 29.95 1012.7
13 16:55 NW 12 10.00 Fair CLR 95.2 53.8 97.7 90.5 25% 93 29.93 1011.9
13 15:55 NW 12 10.00 Fair CLR 96.6 53.8 24% 94 29.94 1012.2
13 14:55 NW 9 10.00 A Few Clouds FEW180 FEW200 96.3 60.6 31% 97 29.95 1012.5
13 13:55 W 3 10.00 Fair CLR 95.2 59.7 31% 95 29.96 1012.8
13 12:55 NW 7 10.00 Fair CLR 94.1 59.7 32% 94 29.97 1013.1
13 11:55 NW 8 10.00 Fair CLR 91.2 60.4 36% 91 29.98 1013.6
13 10:55 Calm 10.00 Fair CLR 92.1 51.3 92.1 65.8 25% 89 29.98 1013.5
13 09:55 Calm 10.00 A Few Clouds FEW190 83.3 57.7 42% 83 29.99 1014.0
13 08:55 Calm 10.00 A Few Clouds FEW160 77.2 61.2 58% 79 29.99 1014.1
13 07:55 Calm 10.00 Fair CLR 75.6 61.5 62% 78 29.97 1013.4
13 06:55 Calm 10.00 Fair CLR 70.5 61 72% 29.95 1012.8
13 05:55 Calm 10.00 Fair CLR 66.7 60.6 81% 29.95 1012.8
13 04:55 Calm 10.00 Fair CLR 66.7 60.6 77.5 66.7 81% 29.94 1012.4
13 03:55 Calm 10.00 Fair CLR 68.2 61 78% 29.92 1011.6
13 02:55 Calm 10.00 Fair CLR 70 61.7 75% 29.89 1010.5
13 01:55 Calm 10.00 Fair CLR 72.1 62.2 71% 29.89 1010.5
13 00:55 Calm 10.00 Fair CLR 73.8 59.4 61% 29.89 1010.5
12 23:55 Calm 10.00 Fair CLR 74.8 59 58% 29.9 1010.8
12 22:55 Calm 10.00 A Few Clouds FEW190 77.5 59 90.7 76.8 53% 79 29.91 1011.3
12 21:55 Calm 10.00 Partly Cloudy SCT200 77.5 59 53% 79 29.9 1011.0
12 20:55 Calm 10.00 Fair CLR 79.2 59.4 51% 80 29.89 1010.6
12 19:55 NW 7 10.00 Fair CLR 81.3 55.9 42% 81 29.88 1010.4
12 18:55 NW 9 10.00 Fair CLR 84.9 59.9 43% 85 29.87 1010.0
12 17:55 NW 10 10.00 Fair CLR 85.3 61.5 45% 86 29.86 1009.7
12 16:55 NW 12 10.00 Mostly Cloudy FEW150 SCT180 BKN210 90.7 63 95.5 84.7 40% 92 29.85 1009.2
12 15:55 NW 10 10.00 Fair CLR 94.6 63.5 36% 96 29.85 1009.1
12 14:55 NW 7 10.00 Partly Cloudy FEW140 SCT180 SCT200 93.6 63.3 37% 95 29.86 1009.5
12 13:55 NW 8 10.00 Partly Cloudy FEW110 FEW150 SCT180 SCT200 93.6 62.6 36% 95 29.87 1009.8
12 12:55 NW 7 10.00 Mostly Cloudy FEW100 FEW120 SCT150 BKN200 92.8 62.6 37% 94 29.88 1010.1
12 11:55 Calm 10.00 Mostly Cloudy FEW120 BKN200 90 57 33% 89 29.9 1010.8
12 10:55 Calm 10.00 Fair CLR 85.1 63.7 89.2 67.6 49% 86 29.91 1011.3
12 09:55 NW 9 10.00 Fair CLR 80.2 64 58% 82 29.92 1011.7
12 08:55 Calm 10.00 A Few Clouds FEW200 77.7 61.7 58% 79 29.94 1012.4
12 07:55 S 5 10.00 Mostly Cloudy BKN190 73.9 63.1 69% 29.94 1012.4
12 06:55 Calm 10.00 Partly Cloudy FEW190 SCT220 70.2 63.3 79% 29.91 1011.3
12 05:55 Calm 10.00 Mostly Cloudy BKN200 68.7 63 82% 29.9 1010.8
12 04:55 Calm 10.00 A Few Clouds FEW210 68.4 63 76.5 67.5 83% 29.9 1010.8
12 03:55 Calm 10.00 Fair CLR 68.5 62.1 80% 29.89 1010.4
12 02:55 Calm 10.00 Fair CLR 69.4 62.6 79% 29.89 1010.4
12 01:55 Calm 10.00 Fair CLR 72.3 63.1 73% 29.88 1010.1
12 00:55 Calm 10.00 Fair CLR 73.6 62.8 69% 29.89 1010.4
11 23:55 Calm 10.00 Fair CLR 74.7 62.1 65% 29.89 1010.3
11 22:55 Calm 10.00 Fair CLR 74.3 61.3 99.1 74.3 64% 29.9 1010.8
11 21:55 Calm 10.00 Fair CLR 78.3 62.2 58% 80 29.9 1010.8
11 20:55 NW 6 10.00 Fair CLR 81.1 62.8 54% 82 29.88 1010.2
11 19:55 W 5 10.00 Fair CLR 86 61.5 44% 86 29.87 1009.8
11 18:55 NW 6 10.00 Fair CLR 92.1 57.9 32% 91 29.85 1009.2
11 17:55 NW 5 10.00 Fair CLR 97 55.2 25% 95 29.84 1008.9
11 16:55 NW 8 10.00 Fair CLR 98.8 54.5 100.2 90.3 23% 97 29.84 1008.8
Date Time (pdt) Wind (mph) Vis. (mi.) Weather Sky Cond. Air Dwpt Max. Min. Relative Humidity Wind Chill (°F) Heat Index (°F) altimeter (in) sea level (mb) 1 hr 3 hr 6 hr
6 hour
Temperature (ºF) Pressure Precipitation (in)